User: anonymous   Login
Location: Be Tobo
(6.6442°N, 10.6239°W)
Time: 02:14:44
(UTC+00:00)
Language:

MOS 1 Rocket - Orbit

View from above orbital plane
View from above orbital plane
View from above satellite
View from above satellite

Ground track
Ground track

The orbit data is extracted from the following two-line orbital elements,

1 17528U 87018B   20339.58913895  .00000127  00000-0  37528-4 0  9991
2 17528  97.4003 168.7100 0150446 289.4271  69.0721 14.51014241783505
Epoch (UTC): 04 December 2020 14:08:21
Eccentricity: 0.0150446
inclination: 97.4003°
perigee height: 615 km
apogee height: 829 km
right ascension of ascending node: 168.7100°
argument of perigee: 289.4271°
revolutions per day: 14.51014241
mean anomaly at epoch: 69.0721°
orbit number at epoch: 78350

The dashed part of the orbit path shows where the satellite is in the earth's shadow,  

DLR